Location: Ash Swamp
(41.5170°N, 74.6157°W)
Time: 16:11:42
(UTC+00:00)

Cosmos 1500 - Pass Details

Date: 14 July 2020
Orbit: 498 x 521 km, 82.5° (Epoch: 04 August)

Event Time Altitude Azimuth Distance (km) Brightness Sun altitude
Exits shadow 07:17:58 33° 280° (W) 879 4.1 -19.7°
Maximum altitude 07:18:03 33° 283° (WNW) 879 4.1 -19.7°
Drops below altitude 10° 07:21:31 10° 349° (NNW) 1,734 6.5 -19.4°
Sets 07:23:48 0° 359° (N) 2,620 7.7 -19.1°
